Flag for Russia Weather past 2 weeks in Surgut, Russia

Now
57 °F

Broken clouds.


Feels Like: 54 °F
Forecast: 43 / 54 °F
Wind: 13 mph from West

Location: Surgut Airport

Current Time: May 27, 2015 at 11:41:09 AM

Latest Report: May 27, 2015 at 11:00 AM


Visibility: 4 mi

Pressure: 29.83 "Hg

Humidity: 59%

Dew point: 43 °F

Location of SurgutLocation

Historic Weather in Surgut — Graph

°F

Surgut temperature yesterday

Maximum temperature yesterday: 57 °F (at 7:00 AM)
Minimum temperature yesterday: 43 °F (at 1:00 AM)
Average temperature yesterday: 53 °F

Past Weeks' High & Low Weather Summary

 TemperatureHumidityPressure
High75 °F (May 15, 12:00 PM)100% (May 20, 1:00 AM)30.21 "Hg (May 20, 1:00 AM)
Low39 °F (May 22, 3:00 AM)20% (May 13, 2:30 PM)29.39 "Hg (May 22, 12:30 AM)
Average56 °F59%29.82 "Hg
* Reported May 12 10:00 AM — May 27 10:30 AM, Surgut, Weather by CustomWeather, © 2015

Note: Actual official high and low records may vary slightly from our data, if they occured in-between our weather recording intervals... More about our weather records

Advertising

Surgut weather history for previous 24 hours

 ConditionsComfort  
Time TempWeatherWind HumidityBarometerVisibility
10:30 AM
Wed, May 27
57 °FClear.10 mph59%29.83 "Hg4 mi
10:00 AM55 °FPartly sunny.13 mph67%29.86 "Hg4 mi
9:30 AM54 °FSprinkles. Partly sunny.10 mph72%29.86 "Hg4 mi
8:30 AM54 °FSprinkles. Broken clouds.13 mph67%29.89 "Hg4 mi
8:00 AM55 °FPartly sunny.17 mph63%29.89 "Hg4 mi
7:30 AM55 °FPartly sunny.17 mph63%29.86 "Hg4 mi
7:00 AM55 °FPartly sunny.10 mph63%29.86 "Hg4 mi
6:30 AM54 °FClear.8 mph67%29.86 "Hg4 mi
6:00 AM52 °FClear.8 mph72%29.89 "Hg4 mi
5:30 AM52 °FClear.6 mph72%29.89 "Hg4 mi
5:00 AM50 °FClear.6 mph76%29.89 "Hg4 mi
4:30 AM48 °FClear.6 mph82%29.92 "Hg4 mi
4:00 AM48 °FClear.3 mph87%29.92 "Hg4 mi
3:30 AM48 °FClear.3 mph82%29.92 "Hg4 mi
3:00 AM45 °FClear.3 mph93%29.92 "Hg4 mi
2:30 AM45 °FClear.1 mph93%29.92 "Hg4 mi
2:00 AM46 °FClear.3 mph87%29.92 "Hg4 mi
1:30 AM45 °FClear.1 mph87%29.92 "Hg4 mi
1:00 AM46 °FClear.1 mph87%29.92 "Hg4 mi
12:30 AM46 °FClear.3 mph87%29.92 "Hg4 mi
12:00 AM48 °FClear.3 mph82%29.92 "Hg4 mi
11:30 PM
Tue, May 26
48 °FClear.1 mph82%29.95 "Hg4 mi
11:00 PM50 °FClear.3 mph82%29.95 "Hg4 mi
10:30 PM52 °FClear.3 mph72%29.95 "Hg4 mi
10:00 PM52 °FClear.3 mph72%29.95 "Hg4 mi
9:30 PM52 °FClear.3 mph72%29.95 "Hg4 mi
9:00 PM52 °FClear.1 mph72%29.92 "Hg4 mi
8:30 PM54 °FClear.3 mph63%29.92 "Hg4 mi
8:00 PM57 °FClear.6 mph55%29.92 "Hg4 mi
7:30 PM57 °FClear.6 mph55%29.92 "Hg4 mi
7:00 PM57 °FClear.6 mph55%29.92 "Hg4 mi
6:30 PM57 °FClear.10 mph55%29.92 "Hg4 mi
6:00 PM57 °FClear.15 mph55%29.89 "Hg4 mi
5:30 PM57 °FClear.13 mph51%29.89 "Hg4 mi
5:00 PM57 °FScattered clouds.17 mph51%29.89 "Hg4 mi
4:30 PM57 °FScattered clouds.17 mph51%29.89 "Hg4 mi
4:00 PM55 °FPartly sunny.20 mph55%29.89 "Hg4 mi
3:30 PM57 °FScattered clouds.13 mph59%29.89 "Hg4 mi
3:00 PM55 °FScattered clouds.13 mph67%29.86 "Hg4 mi
2:30 PM54 °FScattered clouds.6 mph88%29.86 "Hg4 mi
2:00 PM52 °FScattered clouds.8 mph88%29.86 "Hg4 mi
1:30 PM50 °FSprinkles. Scattered clouds.10 mph94%29.86 "Hg4 mi
1:00 PM52 °FSprinkles. Scattered clouds.10 mph82%29.83 "Hg4 mi
12:30 PM52 °FSprinkles. Broken clouds.13 mph82%29.83 "Hg4 mi
12:00 PM55 °FBroken clouds.10 mph67%29.83 "Hg4 mi
11:30 AM54 °FSprinkles. Broken clouds.8 mph72%29.80 "Hg4 mi
11:00 AM55 °FPartly sunny.6 mph63%29.80 "Hg4 mi
Weather by CustomWeather, © 2015

See weather overviewHow to use our weather pages